Weather History for Akron, CO

Change the Weather History Date:

Tuesday, April 16, 2013

  Actual Average Record
Temperature  
Mean Temperature 32 °F 47 °F  
Max Temperature 37 °F 61 °F 83 °F (1964)
Min Temperature 27 °F 33 °F 19 °F (1951)
Degree Days  
Heating Degree Days 33    
Month to date heating degree days 412  
Cooling Degree Days 0    
Month to date cooling degree days 0  
Moisture  
Dew Point 26 °F    
Average Humidity 80    
Maximum Humidity 100    
Minimum Humidity 59    
Precipitation  
Precipitation 0.00 in 0.06 in 0.83 in (1976)
Month to date precipitation 0.70 0.73  
Year to date precipitation 2.31 2.34  
Sea Level Pressure  
Sea Level Pressure 30.00 in    
Wind  
Wind Speed 15 mph (ESE)    
Max Wind Speed 28 mph    
Max Gust Speed 35 mph    
Visibility 7 miles    
Events Fog , Rain    
T = Trace of Precipitation, MM = Missing Value Source: NWS Daily Summary

Daily Weather History Graph

Daily Weather History Graph

Search for Another Location

Airport:

Trip Planner

Search our weather history database for the weather conditions in past years. The results will help you decide how hot, cold, wet, or windy it might be!

Date:

Astronomy

Apr. 16, 2013 Rise Set
Actual Time 6:12 AM MDT 7:32 PM MDT
Civil Twilight 5:44 AM MDT 8:01 PM MDT
Nautical Twilight 5:10 AM MDT 8:35 PM MDT
Astronomical Twilight 4:35 AM MDT 9:10 PM MDT
Moon 10:33 AM MDT (4/16) 12:31 AM MDT (4/16)
Length of Visible Light 14h 16m
Length of Day
13h 20m
Waxing Crescent, 34% of the Moon is Illuminated
Apr 16
Waxing Crescent
Apr 18
First Quarter
Apr 25
Full
May 2
Last Quarter
May 9
New

Hourly Weather History & Observations

Time (MDT) Temp. Windchill Dew Point Humidity Pressure Visibility Wind Dir Wind Speed Gust Speed Precip Events Conditions
12:07 AM 26.6 °F 16.8 °F 24.8 °F 93% 30.01 in 10.0 mi ENE 10.4 mph - N/A   Overcast
12:53 AM 26.1 °F 17.6 °F 25.0 °F 96% 30.03 in 7.0 mi ENE 8.1 mph - N/A   Overcast
1:14 AM 26.6 °F 17.5 °F 26.6 °F 100% 30.03 in 4.0 mi East 9.2 mph - 0.01 in Rain Light Freezing Rain
1:53 AM 27.0 °F 16.1 °F 27.0 °F 100% 30.09 in 4.0 mi East 12.7 mph - 0.01 in Rain Light Freezing Rain
2:53 AM 27.0 °F 17.3 °F 26.1 °F 96% 30.10 in 4.0 mi East 10.4 mph - 0.00 in Rain Light Freezing Rain
3:01 AM 26.6 °F 16.2 °F 26.6 °F 100% 30.01 in 3.0 mi East 11.5 mph - 0.00 in   Overcast
3:53 AM 26.1 °F 15.0 °F 26.1 °F 100% 30.09 in 9.0 mi ESE 12.7 mph - 0.00 in   Overcast
4:08 AM 26.6 °F 15.2 °F 26.6 °F 100% 30.01 in 2.5 mi ESE 13.8 mph - N/A   Overcast
4:19 AM 26.6 °F 16.2 °F 26.6 °F 100% 30.01 in 1.5 mi ESE 11.5 mph - N/A   Overcast
4:27 AM 26.6 °F 15.7 °F 26.6 °F 100% 30.01 in 1.2 mi ESE 12.7 mph - N/A   Overcast
4:32 AM 26.6 °F 15.2 °F 26.6 °F 100% 30.01 in 2.0 mi ESE 13.8 mph - N/A   Overcast
4:38 AM 26.6 °F 15.2 °F 26.6 °F 100% 30.01 in 1.2 mi ESE 13.8 mph - N/A   Overcast
4:43 AM 26.6 °F 16.2 °F 26.6 °F 100% 30.01 in 0.8 mi ESE 11.5 mph - N/A   Mist
4:53 AM 26.1 °F 15.0 °F 26.1 °F 100% 30.09 in 0.5 mi ESE 12.7 mph - N/A Fog Light Freezing Fog
5:03 AM 26.6 °F 14.7 °F 26.6 °F 100% 30.01 in 1.2 mi ESE 15.0 mph - N/A   Overcast
5:05 AM 26.6 °F 14.7 °F 26.6 °F 100% 30.00 in 2.0 mi ESE 15.0 mph - N/A   Overcast
5:12 AM 26.6 °F 15.2 °F 26.6 °F 100% 30.00 in 10.0 mi ESE 13.8 mph - N/A   Overcast
6:53 AM 26.1 °F 14.0 °F 26.1 °F 100% 30.11 in 6.0 mi ESE 15.0 mph - N/A   Overcast
7:53 AM 26.1 °F 13.1 °F - N/A% 30.11 in 10.0 mi SE 17.3 mph 24.2 mph N/A   Overcast
8:53 AM - - - N/A% 30.02 in - SE 23.0 mph - N/A   Unknown
9:22 AM 26.6 °F 12.7 °F - N/A% 30.02 in 10.0 mi SE 20.7 mph - N/A   Overcast
9:53 AM 28.0 °F 14.9 °F 25.0 °F 88% 30.01 in 10.0 mi SE 19.6 mph 26.5 mph N/A   Overcast
10:53 AM 28.9 °F 15.8 °F 25.0 °F 85% 30.00 in 10.0 mi SE 20.7 mph 27.6 mph N/A   Overcast
11:46 AM 30.2 °F 16.5 °F 24.8 °F 80% 29.98 in 10.0 mi SE 24.2 mph 28.8 mph N/A   Overcast
11:53 AM 30.0 °F 16.6 °F 26.1 °F 85% 29.98 in 10.0 mi SE 23.0 mph 28.8 mph N/A   Overcast
12:13 PM 30.2 °F 15.9 °F 24.8 °F 80% 29.96 in 10.0 mi SE 26.5 mph 31.1 mph N/A   Overcast
12:53 PM 33.1 °F 20.6 °F 27.0 °F 78% 29.94 in 10.0 mi SE 23.0 mph - N/A   Overcast
1:53 PM 35.1 °F 22.7 °F 26.1 °F 70% 29.91 in 10.0 mi ESE 25.3 mph 34.5 mph N/A   Overcast
2:53 PM 34.0 °F 21.5 °F 26.1 °F 73% 29.89 in 10.0 mi ESE 24.2 mph 31.1 mph N/A   Overcast
3:30 PM 37.4 °F 26.1 °F 24.8 °F 60% 29.88 in 10.0 mi SE 24.2 mph 32.2 mph N/A   Overcast
3:53 PM 37.0 °F 25.4 °F 25.0 °F 62% 29.88 in 10.0 mi SE 25.3 mph 32.2 mph N/A   Overcast
4:53 PM 37.0 °F 25.9 °F 24.1 °F 59% 29.89 in 10.0 mi SE 23.0 mph 31.1 mph N/A   Overcast
5:53 PM 36.0 °F 24.4 °F 24.1 °F 62% 29.90 in 10.0 mi ESE 23.0 mph - N/A   Overcast
6:53 PM 34.0 °F 23.8 °F 24.1 °F 67% 29.93 in 10.0 mi ESE 16.1 mph 24.2 mph N/A   Overcast
7:12 PM 33.8 °F 22.8 °F 24.8 °F 70% 29.94 in 10.0 mi ESE 18.4 mph 23.0 mph N/A   Overcast
7:53 PM 32.0 °F 21.6 °F 26.1 °F 79% 29.95 in 10.0 mi ESE 15.0 mph - N/A   Overcast
8:53 PM 30.9 °F 18.7 °F 26.1 °F 82% 30.07 in 10.0 mi ESE 19.6 mph 25.3 mph N/A   Overcast
9:53 PM 30.9 °F 19.8 °F 25.0 °F 79% 30.07 in 10.0 mi East 16.1 mph 24.2 mph N/A   Overcast
10:53 PM 30.9 °F 19.8 °F 26.1 °F 82% 30.06 in 10.0 mi East 16.1 mph 24.2 mph N/A   Overcast
11:53 PM 30.0 °F 18.7 °F 25.0 °F 82% 30.06 in 10.0 mi East 16.1 mph 23.0 mph N/A   Overcast